Weather History for Fairbanks Ft. Wainwright, AK

Change the Weather History Date:

Thursday, October 4, 2012

  Actual Average Record
Temperature  
Mean Temperature 50 °F -  
Max Temperature 59 °F 39 °F 60 °F (2001)
Min Temperature 39 °F 26 °F 14 °F (1996)
Degree Days  
Heating Degree Days 14    
Moisture  
Dew Point 32 °F    
Average Humidity 53    
Maximum Humidity 76    
Minimum Humidity 42    
Precipitation  
Precipitation 0.00 in - - ()
Sea Level Pressure  
Sea Level Pressure 29.90 in    
Wind  
Wind Speed 6 mph (ENE)    
Max Wind Speed 9 mph    
Max Gust Speed -    
Visibility 11 miles    
Events Rain    
Averages and records for this station are not official NWS values.
T = Trace of Precipitation, MM = Missing Value Source: NWS Daily Summary

Daily Weather History Graph

Daily Weather History Graph

Search for Another Location

Airport:

Trip Planner

Search our weather history database for the weather conditions in past years. The results will help you decide how hot, cold, wet, or windy it might be!

Date:

Astronomy

Oct. 04, 2012 Rise Set
Actual Time 8:11 AM AKDT 7:05 PM AKDT
Civil Twilight 7:22 AM AKDT 7:53 PM AKDT
Nautical Twilight 6:25 AM AKDT 8:50 PM AKDT
Astronomical Twilight 5:23 AM AKDT 9:51 PM AKDT
Moon 7:48 PM AKDT (10/4) 2:35 PM AKDT (10/4)
Length of Visible Light 12h 31m
Length of Day
10h 53m
Waning Gibbous, 81% of the Moon is Illuminated
Oct 4
Waning Gibbous
Oct 7
Last Quarter
Oct 15
New
Oct 21
First Quarter
Oct 29
Full

Hourly Weather History & Observations

Time (AKDT) Temp. Windchill Dew Point Humidity Pressure Visibility Wind Dir Wind Speed Gust Speed Precip Events Conditions
12:56 AM 45.0 °F 40.6 °F 26.1 °F 48% 29.96 in 10.0 mi East 8.1 mph - N/A   Clear
1:56 AM 46.0 °F 42.5 °F 27.0 °F 47% 29.94 in 10.0 mi ENE 6.9 mph - N/A   Clear
2:56 AM 44.1 °F 40.8 °F 27.0 °F 51% 29.93 in 10.0 mi ENE 5.8 mph - N/A   Clear
3:56 AM 44.1 °F 40.8 °F 27.0 °F 51% 29.93 in 10.0 mi ENE 5.8 mph - N/A   Clear
4:56 AM 45.0 °F 40.1 °F 27.0 °F 49% 29.89 in 10.0 mi East 9.2 mph - N/A   Scattered Clouds
5:56 AM 44.1 °F 40.8 °F 28.0 °F 53% 29.89 in 10.0 mi ENE 5.8 mph - N/A   Clear
6:30 AM 42.8 °F 38.6 °F 28.4 °F 57% 29.87 in 10.0 mi ENE 6.9 mph - N/A   Scattered Clouds
6:55 AM 42.8 °F 38.0 °F 28.4 °F 57% 29.88 in 10.0 mi ENE 8.1 mph - N/A   Mostly Cloudy
7:55 AM 42.8 °F 39.3 °F 28.4 °F 57% 29.87 in 35.0 mi East 5.8 mph - N/A   Mostly Cloudy
8:55 AM 44.6 °F 40.2 °F 28.4 °F 53% 29.87 in 35.0 mi ENE 8.1 mph - N/A   Mostly Cloudy
9:55 AM 46.4 °F 42.9 °F 30.2 °F 53% 29.87 in 35.0 mi East 6.9 mph - N/A   Overcast
10:55 AM 50.0 °F - 32.0 °F 50% 29.89 in 35.0 mi ENE 5.8 mph - N/A   Mostly Cloudy
11:55 AM 51.8 °F - 33.8 °F 50% 29.90 in 35.0 mi ENE 6.9 mph - N/A   Overcast
12:44 PM 51.8 °F - 33.8 °F 50% 29.90 in 35.0 mi East 3.5 mph - N/A Rain Light Rain Showers
12:55 PM 51.8 °F - 35.6 °F 54% 29.90 in 35.0 mi ENE 5.8 mph - N/A Rain Light Rain Showers
1:15 PM 51.8 °F - 35.6 °F 54% 29.89 in 35.0 mi East 4.6 mph - N/A   Overcast
1:55 PM 53.6 °F - 35.6 °F 51% 29.90 in 35.0 mi East 1.2 mph - N/A   Overcast
2:55 PM 55.4 °F - 35.6 °F 47% 29.91 in 13.0 mi East 3.5 mph - N/A   Overcast
3:55 PM 59.0 °F - 35.6 °F 42% 29.89 in 13.0 mi ENE 5.8 mph - N/A   Overcast
4:55 PM 59.0 °F - 35.6 °F 42% 29.88 in 13.0 mi ENE 5.8 mph - N/A   Mostly Cloudy
5:55 PM 57.2 °F - 35.6 °F 44% 29.88 in 13.0 mi ENE 1.2 mph - N/A   Mostly Cloudy
6:55 PM 57.2 °F - 35.6 °F 44% 29.88 in 13.0 mi ENE 3.5 mph - N/A   Mostly Cloudy
7:55 PM 50.0 °F - 35.6 °F 58% 29.90 in 13.0 mi East 3.5 mph - N/A   Mostly Cloudy
8:55 PM 48.2 °F - 35.6 °F 62% 29.91 in 10.0 mi Calm Calm - N/A   Mostly Cloudy
10:56 PM 42.1 °F - 34.0 °F 73% 29.94 in 10.0 mi Calm Calm - N/A   Clear
11:56 PM 39.0 °F - 32.0 °F 76% 29.96 in 10.0 mi Calm Calm - N/A   Clear